Estació municipal de El Brull (Osona, P.N. del Montseny)

Consulta les dades en temps real de l'estació municipal de El Brull





Hora UTC 05:00
Temperatura 26.2 ºC
Humitat 35.7 %
Pressió 1024.2 hPa
Pluja 0.0 mm
Velocitat vent 1.8 km/h
Direcció vent ESE
Radiació solar 0.1 W/m²

Webcam

Dades diàries 2026-09-06



Hora UTC (hivern +1h; estiu +2h)
Temperatura (ºC) Humitat (%) Pressió (hPa) Velocitat vent (km/h) Precipitació (mm) Radiació solar (W/m²)
Hora UTC Aire Humitat Pressió Vel. Dir. Vel. Max Dir. Intent. màx 5 min. Rad. Sol.
00:10 25.4 40.0 1025.2 3.5 NNW 4.7 NNW 0.0 0.0
00:20 24.9 43.1 1025.2 2.3 N 4.2 N 0.0 0.0
00:30 25.1 42.8 1025.1 0.3 ESE 1.5 E 0.0 0.0
00:40 25.0 41.3 1025.1 1.4 E 2.8 E 0.0 0.0
00:50 25.0 40.6 1025.0 1.8 SE 5.1 SE 0.0 0.0
01:00 25.0 40.8 1025.0 2.3 SE 5.5 SE 0.0 0.0
01:10 25.1 42.0 1024.9 0.9 SSE 4.9 SSE 0.0 0.0
01:20 25.4 41.6 1024.9 2.9 E 6.7 SE 0.0 0.0
01:30 25.3 40.6 1024.9 1.3 NNE 4.2 N 0.0 0.0
01:40 25.3 40.6 1024.9 1.6 ESE 3.6 ESE 0.0 0.0
01:50 25.3 39.9 1024.8 3.1 ESE 6.0 SE 0.0 0.0
02:00 25.5 38.2 1024.7 1.2 ESE 4.1 SE 0.0 0.0
02:10 25.6 38.1 1024.7 2.2 NNE 5.8 NNW 0.0 0.0
02:20 24.7 41.4 1024.7 0.4 NNE 3.1 NNW 0.0 0.0
02:30 24.1 44.1 1024.7 0.5 NE 1.6 NE 0.0 0.0
02:40 24.1 42.7 1024.7 0.4 NE 1.9 NE 0.0 0.0
02:50 24.3 42.1 1024.7 0.3 NE 1.8 NE 0.0 0.0
03:00 24.2 41.7 1024.7 1.0 NE 2.0 NE 0.0 0.0
03:10 24.3 40.3 1024.7 1.1 NE 4.0 NE 0.0 0.0
03:20 24.6 37.8 1024.7 1.4 NE 4.0 NE 0.0 0.0
03:30 25.3 38.3 1024.6 2.2 E 5.2 ESE 0.0 0.0
03:40 25.7 39.0 1024.5 1.6 E 5.5 ESE 0.0 0.0
04:00 26.4 36.6 1024.4 2.4 ENE 5.9 ENE 0.0 0.0
04:10 26.6 36.0 1024.3 1.9 E 4.9 ESE 0.0 0.0
04:20 26.5 35.6 1024.3 0.9 ESE 4.0 ENE 0.0 0.0
04:30 26.4 35.6 1024.3 1.4 SE 4.0 ESE 0.0 0.0
04:40 26.3 35.6 1024.3 3.2 SE 7.6 SE 0.0 0.0
04:50 26.3 35.1 1024.3 2.9 ESE 5.9 E 0.0 0.0
05:00 26.2 35.7 1024.2 1.8 ESE 4.7 ESE 0.0 0.1
Màxima 26.6 44.1 1025.2 3.5 NNW 7.6 SE 0.0 0.1
Mínima 20 35.1 1024.2
Total 0.0